| time (UTC) | temp F | wind direction | speed knots | gust knots | rain 1hr in | rain 24hr in | rain mn in | humidity % | barometer mb |
| 20260508005026 | 60 | 41 | 0.0 | 0.9 | 0.00 | 0.15 | 0.00 | 77 | 1009.2 |
| 20260508004040 | 60 | 0.0 | 0.0 | 0.00 | 0.15 | 0.00 | 79 | 1009.2 | |
| 20260508003034 | 61 | 30 | 0.0 | 0.9 | 0.00 | 0.16 | 0.00 | 75 | 1009.3 |
| 20260508002030 | 61 | 20 | 0.0 | 0.9 | 0.00 | 0.17 | 0.00 | 77 | 1009.6 |
| 20260508001023 | 60 | 41 | 0.0 | 0.9 | 0.00 | 0.17 | 0.00 | 77 | 1009.7 |
| 20260508000020 | 60 | 48 | 0.0 | 0.9 | 0.00 | 0.18 | 0.00 | 77 | 1009.7 |
| 20260507235052 | 61 | 28 | 0.0 | 0.9 | 0.00 | 0.18 | 0.00 | 76 | 1009.8 |
| 20260507234027 | 61 | 0.0 | 0.0 | 0.00 | 0.18 | 0.00 | 75 | 1009.9 | |
| 20260507233023 | 61 | 18 | 0.0 | 0.9 | 0.00 | 0.18 | 0.00 | 75 | 1009.9 |
| 20260507232016 | 60 | 6 | 0.0 | 0.9 | 0.00 | 0.18 | 0.00 | 77 | 1010.1 |
| 20260507231031 | 60 | 0.0 | 0.0 | 0.00 | 0.18 | 0.00 | 78 | 1010.1 | |
| 20260507230029 | 61 | 0.0 | 0.0 | 0.00 | 0.18 | 0.00 | 77 | 1010.4 | |
| 20260507225040 | 60 | 41 | 0.0 | 0.9 | 0.00 | 0.18 | 0.00 | 77 | 1010.5 |
| 20260507224035 | 61 | 0.0 | 0.0 | 0.00 | 0.18 | 0.00 | 75 | 1010.5 | |
| 20260507223030 | 60 | 27 | 0.0 | 0.9 | 0.00 | 0.18 | 0.00 | 77 | 1010.5 |
| 20260507222023 | 60 | 0.0 | 0.0 | 0.00 | 0.18 | 0.00 | 78 | 1010.7 | |
| 20260507221016 | 61 | 0.0 | 0.0 | 0.00 | 0.18 | 0.00 | 78 | 1010.6 | |
| 20260507220031 | 60 | 30 | 0.0 | 0.9 | 0.00 | 0.18 | 0.18 | 77 | 1010.6 |
| 20260507215026 | 61 | 0.0 | 0.0 | 0.00 | 0.18 | 0.18 | 75 | 1010.8 | |
| 20260507214020 | 60 | 0.0 | 0.0 | 0.00 | 0.18 | 0.18 | 76 | 1010.8 | |
| 20260507213016 | 60 | 0.0 | 0.0 | 0.00 | 0.18 | 0.18 | 76 | 1010.9 | |
| 20260507212032 | 60 | 39 | 0.0 | 0.9 | 0.00 | 0.18 | 0.18 | 74 | 1010.9 |
| 20260507211108 | 60 | 29 | 0.0 | 0.9 | 0.00 | 0.18 | 0.18 | 76 | 1010.8 |
| 20260507210022 | 60 | 0.0 | 0.0 | 0.00 | 0.18 | 0.18 | 75 | 1011.0 | |
| 20260507205017 | 61 | 0.0 | 0.0 | 0.00 | 0.18 | 0.18 | 75 | 1011.0 | |
| 20260507204032 | 61 | 25 | 0.0 | 0.9 | 0.00 | 0.18 | 0.18 | 75 | 1011.1 |
| 20260507203028 | 61 | 0.0 | 0.0 | 0.00 | 0.18 | 0.18 | 73 | 1011.0 | |
| 20260507202023 | 62 | 162 | 0.0 | 0.9 | 0.00 | 0.18 | 0.18 | 69 | 1011.1 |
| 20260507201039 | 63 | 0.0 | 0.0 | 0.00 | 0.18 | 0.18 | 65 | 1011.2 | |
| 20260507200034 | 63 | 258 | 0.0 | 0.9 | 0.00 | 0.18 | 0.18 | 63 | 1011.2 |
| 20260507195030 | 64 | 16 | 0.9 | 1.7 | 0.00 | 0.18 | 0.18 | 61 | 1011.3 |
| 20260507194024 | 63 | 351 | 0.9 | 1.7 | 0.00 | 0.18 | 0.18 | 63 | 1011.2 |
| 20260507193019 | 64 | 347 | 0.9 | 1.7 | 0.00 | 0.18 | 0.18 | 61 | 1011.1 |
| 20260507192033 | 64 | 353 | 1.7 | 2.6 | 0.00 | 0.18 | 0.18 | 63 | 1011.1 |
| 20260507191109 | 64 | 359 | 0.9 | 2.6 | 0.00 | 0.18 | 0.18 | 63 | 1011.0 |
| 20260507190024 | 65 | 349 | 0.9 | 2.6 | 0.00 | 0.18 | 0.18 | 63 | 1011.1 |
| 20260507185039 | 65 | 2 | 1.7 | 3.5 | 0.00 | 0.18 | 0.18 | 62 | 1011.1 |
| 20260507184033 | 65 | 9 | 1.7 | 2.6 | 0.00 | 0.18 | 0.18 | 63 | 1011.1 |
| 20260507183027 | 65 | 9 | 1.7 | 2.6 | 0.00 | 0.18 | 0.18 | 63 | 1011.0 |
| 20260507182022 | 65 | 354 | 1.7 | 3.5 | 0.00 | 0.18 | 0.18 | 64 | 1011.0 |
| 20260507181016 | 66 | 19 | 1.7 | 2.6 | 0.00 | 0.18 | 0.18 | 63 | 1011.0 |
| 20260507180031 | 66 | 16 | 1.7 | 5.2 | 0.00 | 0.18 | 0.18 | 61 | 1011.1 |
| 20260507175027 | 67 | 22 | 1.7 | 5.2 | 0.00 | 0.18 | 0.18 | 60 | 1011.2 |
| 20260507174021 | 67 | 17 | 0.0 | 1.7 | 0.00 | 0.20 | 0.18 | 61 | 1011.2 |
| 20260507173016 | 67 | 6 | 0.9 | 1.7 | 0.00 | 0.20 | 0.18 | 59 | 1011.2 |
| 20260507172032 | 68 | 7 | 0.9 | 2.6 | 0.00 | 0.20 | 0.18 | 58 | 1011.1 |
| 20260507171026 | 68 | 3 | 0.9 | 2.6 | 0.00 | 0.20 | 0.18 | 58 | 1011.1 |
| 20260507170020 | 69 | 356 | 0.9 | 2.6 | 0.00 | 0.20 | 0.18 | 59 | 1011.1 |
| 20260507165036 | 69 | 353 | 0.9 | 2.6 | 0.00 | 0.20 | 0.18 | 59 | 1011.2 |
| 20260507164029 | 69 | 20 | 0.9 | 2.6 | 0.00 | 0.20 | 0.18 | 60 | 1011.1 |
| 20260507163024 | 69 | 182 | 0.9 | 2.6 | 0.00 | 0.20 | 0.18 | 61 | 1011.0 |
| 20260507162039 | 70 | 333 | 0.9 | 1.7 | 0.00 | 0.20 | 0.18 | 61 | 1011.0 |
| 20260507161033 | 70 | 346 | 1.7 | 2.6 | 0.00 | 0.20 | 0.18 | 60 | 1011.0 |
| 20260507160027 | 70 | 10 | 0.9 | 5.2 | 0.00 | 0.20 | 0.18 | 60 | 1011.0 |
| 20260507155123 | 71 | 331 | 0.9 | 1.7 | 0.00 | 0.20 | 0.18 | 61 | 1011.0 |
| 20260507154017 | 70 | 358 | 0.9 | 2.6 | 0.00 | 0.20 | 0.18 | 62 | 1011.1 |
| 20260507153032 | 70 | 8 | 0.9 | 3.5 | 0.00 | 0.20 | 0.18 | 61 | 1011.0 |
| 20260507152028 | 70 | 322 | 0.9 | 2.6 | 0.00 | 0.20 | 0.18 | 62 | 1011.1 |
| 20260507151021 | 70 | 356 | 0.9 | 2.6 | 0.00 | 0.20 | 0.18 | 62 | 1011.1 |
| 20260507150036 | 71 | 303 | 0.9 | 1.7 | 0.00 | 0.20 | 0.18 | 63 | 1011.1 |
| 20260507145031 | 72 | 7 | 0.9 | 2.6 | 0.00 | 0.20 | 0.18 | 60 | 1011.1 |
| 20260507144026 | 73 | 319 | 1.7 | 3.5 | 0.00 | 0.20 | 0.18 | 60 | 1011.2 |
| 20260507143020 | 73 | 293 | 0.9 | 3.5 | 0.00 | 0.20 | 0.18 | 61 | 1011.2 |
| 20260507142055 | 72 | 262 | 0.9 | 1.7 | 0.00 | 0.20 | 0.18 | 63 | 1011.6 |
| 20260507141029 | 72 | 232 | 0.0 | 1.7 | 0.00 | 0.20 | 0.18 | 66 | 1011.6 |
| 20260507140024 | 71 | 213 | 1.7 | 3.5 | 0.00 | 0.20 | 0.18 | 66 | 1011.9 |
| 20260507135018 | 70 | 236 | 0.9 | 2.6 | 0.00 | 0.20 | 0.18 | 66 | 1012.1 |
| 20260507134033 | 69 | 226 | 1.7 | 3.5 | 0.00 | 0.20 | 0.18 | 67 | 1012.2 |
| 20260507133029 | 71 | 243 | 0.9 | 2.6 | 0.00 | 0.20 | 0.18 | 62 | 1012.2 |
| 20260507132024 | 70 | 204 | 0.9 | 3.5 | 0.00 | 0.20 | 0.18 | 57 | 1012.2 |
| 20260507131019 | 72 | 189 | 1.7 | 3.5 | 0.00 | 0.20 | 0.18 | 58 | 1012.3 |
| 20260507130033 | 71 | 209 | 1.7 | 3.5 | 0.00 | 0.20 | 0.18 | 59 | 1012.3 |
| 20260507125028 | 71 | 197 | 1.7 | 3.5 | 0.00 | 0.20 | 0.18 | 56 | 1012.3 |
| 20260507124103 | 72 | 182 | 0.9 | 2.6 | 0.00 | 0.20 | 0.18 | 55 | 1012.5 |
| 20260507123018 | 72 | 193 | 0.9 | 1.7 | 0.00 | 0.20 | 0.18 | 56 | 1012.7 |
| 20260507122032 | 73 | 213 | 0.9 | 2.6 | 0.00 | 0.20 | 0.18 | 57 | 1012.7 |
| 20260507121048 | 73 | 271 | 0.9 | 1.7 | 0.00 | 0.20 | 0.18 | 64 | 1012.6 |
| 20260507120025 | 70 | 303 | 0.9 | 0.9 | 0.00 | 0.20 | 0.18 | 67 | 1012.7 |
| 20260507115035 | 70 | 237 | 0.9 | 2.6 | 0.00 | 0.20 | 0.18 | 69 | 1012.7 |
| 20260507114131 | 70 | 16 | 0.9 | 3.5 | 0.00 | 0.20 | 0.18 | 69 | 1012.8 |
| 20260507113023 | 70 | 212 | 0.9 | 1.7 | 0.00 | 0.20 | 0.18 | 71 | 1012.8 |
| 20260507112018 | 68 | 258 | 0.9 | 2.6 | 0.00 | 0.20 | 0.18 | 72 | 1012.8 |
| 20260507111034 | 69 | 268 | 0.9 | 2.6 | 0.00 | 0.20 | 0.18 | 72 | 1013.0 |
| 20260507110027 | 68 | 1 | 1.7 | 5.2 | 0.00 | 0.20 | 0.18 | 73 | 1013.0 |
| 20260507105022 | 69 | 259 | 0.0 | 0.9 | 0.00 | 0.20 | 0.18 | 70 | 1013.1 |
| 20260507104037 | 68 | 338 | 0.9 | 2.6 | 0.00 | 0.20 | 0.18 | 72 | 1013.2 |
| 20260507103030 | 68 | 320 | 0.9 | 1.7 | 0.00 | 0.20 | 0.18 | 73 | 1013.3 |
| 20260507102026 | 68 | 234 | 0.9 | 3.5 | 0.00 | 0.20 | 0.18 | 72 | 1013.4 |
| 20260507101019 | 68 | 226 | 0.9 | 1.7 | 0.00 | 0.20 | 0.18 | 71 | 1013.4 |
| 20260507100033 | 68 | 226 | 0.9 | 3.5 | 0.00 | 0.20 | 0.18 | 72 | 1013.4 |
| 20260507095027 | 67 | 198 | 0.9 | 1.7 | 0.00 | 0.20 | 0.18 | 73 | 1013.3 |
| 20260507094022 | 67 | 203 | 0.9 | 1.7 | 0.00 | 0.20 | 0.18 | 73 | 1013.4 |
| 20260507093016 | 66 | 170 | 0.9 | 2.6 | 0.00 | 0.20 | 0.18 | 74 | 1013.4 |
| 20260507092032 | 66 | 190 | 0.9 | 2.6 | 0.00 | 0.21 | 0.18 | 74 | 1013.2 |
| 20260507091027 | 65 | 221 | 0.9 | 1.7 | 0.00 | 0.21 | 0.18 | 78 | 1013.2 |
| 20260507090020 | 63 | 194 | 0.9 | 1.7 | 0.00 | 0.21 | 0.18 | 79 | 1013.2 |
| 20260507085057 | 63 | 226 | 0.9 | 1.7 | 0.00 | 0.21 | 0.18 | 80 | 1013.2 |
| 20260507084030 | 63 | 182 | 0.9 | 1.7 | 0.00 | 0.21 | 0.18 | 79 | 1013.3 |
| 20260507083045 | 61 | 217 | 0.0 | 1.7 | 0.00 | 0.21 | 0.18 | 83 | 1013.4 |
| 20260507082018 | 60 | 262 | 0.9 | 1.7 | 0.00 | 0.21 | 0.18 | 85 | 1013.5 |
| 20260507081033 | 60 | 238 | 0.9 | 5.2 | 0.00 | 0.21 | 0.18 | 86 | 1013.6 |
| 20260507080027 | 60 | 319 | 0.0 | 0.9 | 0.00 | 0.21 | 0.18 | 86 | 1013.6 |
| 20260507075044 | 60 | 24 | 0.0 | 1.7 | 0.00 | 0.21 | 0.18 | 89 | 1013.5 |
| 20260507074017 | 57 | 192 | 0.0 | 0.9 | 0.00 | 0.21 | 0.18 | 95 | 1013.6 |
| 20260507073031 | 56 | 24 | 0.0 | 0.9 | 0.00 | 0.21 | 0.18 | 98 | 1013.6 |
| 20260507072027 | 55 | 355 | 0.9 | 1.7 | 0.00 | 0.21 | 0.18 | 99 | 1013.8 |
| 20260507071021 | 55 | 8 | 0.9 | 2.6 | 0.00 | 0.21 | 0.18 | 99 | 1013.8 |
| 20260507070035 | 55 | 317 | 0.0 | 0.9 | 0.00 | 0.21 | 0.18 | 99 | 1013.4 |
| 20260507065029 | 55 | 310 | 0.0 | 0.9 | 0.00 | 0.21 | 0.18 | 99 | 1013.3 |
| 20260507064024 | 55 | 192 | 0.0 | 0.9 | 0.00 | 0.21 | 0.18 | 99 | 1013.1 |
| 20260507063038 | 55 | 181 | 0.0 | 0.9 | 0.00 | 0.21 | 0.18 | 99 | 1013.1 |
| 20260507062034 | 55 | 212 | 0.0 | 0.9 | 0.00 | 0.21 | 0.18 | 99 | 1013.1 |
| 20260507061027 | 55 | 151 | 0.0 | 0.9 | 0.00 | 0.21 | 0.18 | 99 | 1013.1 |
| 20260507060021 | 55 | 0.0 | 0.0 | 0.00 | 0.22 | 0.18 | 99 | 1013.0 | |
| 20260507055035 | 55 | 0.0 | 0.0 | 0.00 | 0.23 | 0.18 | 99 | 1013.1 | |
| 20260507054030 | 54 | 0.0 | 0.0 | 0.00 | 0.23 | 0.18 | 99 | 1013.0 | |
| 20260507053024 | 54 | 0.0 | 0.0 | 0.00 | 0.23 | 0.18 | 99 | 1013.1 | |
| 20260507052020 | 54 | 0.0 | 0.0 | 0.00 | 0.24 | 0.18 | 99 | 1013.2 | |
| 20260507051054 | 54 | 0.0 | 0.0 | 0.00 | 0.24 | 0.18 | 99 | 1013.2 | |
| 20260507050028 | 53 | 7 | 0.0 | 0.9 | 0.00 | 0.24 | 0.18 | 99 | 1013.1 |
| 20260507045023 | 53 | 0 | 0.0 | 0.9 | 0.00 | 0.24 | 0.18 | 99 | 1013.0 |
| 20260507044018 | 53 | 20 | 0.0 | 1.7 | 0.00 | 0.24 | 0.18 | 99 | 1013.0 |
| 20260507043033 | 53 | 0.0 | 0.0 | 0.00 | 0.24 | 0.18 | 99 | 1012.9 | |
| 20260507042027 | 53 | 0.0 | 0.0 | 0.00 | 0.24 | 0.18 | 99 | 1013.0 | |
| 20260507041021 | 53 | 0.0 | 0.0 | 0.00 | 0.24 | 0.18 | 99 | 1013.0 | |
| 20260507040036 | 53 | 0.0 | 0.0 | 0.01 | 0.24 | 0.18 | 99 | 1013.0 | |
| 20260507035030 | 53 | 0.0 | 0.0 | 0.01 | 0.24 | 0.18 | 99 | 1012.8 | |
| 20260507034025 | 53 | 0.0 | 0.0 | 0.04 | 0.24 | 0.18 | 99 | 1012.8 | |
| 20260507033019 | 53 | 333 | 0.0 | 0.9 | 0.05 | 0.24 | 0.18 | 99 | 1012.7 |
| 20260507032054 | 53 | 0.0 | 0.0 | 0.06 | 0.24 | 0.18 | 99 | 1012.7 | |
| 20260507031027 | 53 | 0.0 | 0.0 | 0.07 | 0.24 | 0.18 | 99 | 1012.8 | |
| 20260507025017 | 53 | 0.0 | 0.0 | 0.06 | 0.23 | 0.17 | 99 | 1012.9 | |
| 20260507024030 | 53 | 0.0 | 0.0 | 0.04 | 0.20 | 0.14 | 99 | 1012.8 | |
| 20260507023026 | 53 | 0.0 | 0.0 | 0.04 | 0.19 | 0.13 | 99 | 1012.9 | |
| 20260507022021 | 53 | 0.0 | 0.0 | 0.06 | 0.18 | 0.12 | 99 | 1012.7 | |
| 20260507021034 | 53 | 0.0 | 0.0 | 0.07 | 0.17 | 0.11 | 99 | 1012.7 | |
| 20260507020029 | 53 | 0.0 | 0.0 | 0.08 | 0.18 | 0.11 | 98 | 1012.8 | |
| 20260507015025 | 53 | 0.0 | 0.0 | 0.08 | 0.18 | 0.11 | 98 | 1012.9 | |
| 20260507014018 | 53 | 0.0 | 0.0 | 0.07 | 0.17 | 0.10 | 98 | 1012.9 | |
| 20260507013033 | 53 | 176 | 0.0 | 0.9 | 0.07 | 0.16 | 0.09 | 98 | 1013.0 |
| 20260507012027 | 53 | 177 | 0.0 | 0.9 | 0.05 | 0.13 | 0.06 | 98 | 1012.9 |
| 20260507011024 | 53 | 0.0 | 0.0 | 0.03 | 0.11 | 0.04 | 97 | 1013.0 | |
| 20260507010018 | 53 | 194 | 0.0 | 0.9 | 0.03 | 0.10 | 0.03 | 97 | 1012.9 |